This is the latest recevied weather packets stored in our database for station/object KD7AWQ. If no packets are shown the sender has not sent any weather packets the latest 10 day(s).
| Time | Temp. | Humidity | Pressure | Rain* | Wind** | Luminosity | Snow |
|---|---|---|---|---|---|---|---|
| 1787898869 | 28.33° C | 32% | 1189.6 hPa | 0 mm | - | 0 W/m² | - |
| 1787898565 | 28.33° C | 32% | 1189.7 hPa | 0 mm | - | 0 W/m² | - |
| 1787898264 | 28.89° C | 32% | 1189.7 hPa | 0 mm | - | 0 W/m² | - |
| 1787897959 | 29.44° C | 31% | 1189.7 hPa | 0 mm | - | 0 W/m² | - |
| 1787897654 | 30° C | 29% | 1189.8 hPa | 0 mm | - | 0 W/m² | - |
| 1787897353 | 30° C | 28% | 1189.5 hPa | 0 mm | - | 0 W/m² | - |
| 1787897047 | 30° C | 27% | 1189.2 hPa | 0 mm | - | 0 W/m² | - |
| 1787896746 | 29.44° C | 29% | 1189.2 hPa | 0 mm | - | 0 W/m² | - |
| 1787896443 | 29.44° C | 29% | 1188.8 hPa | 0 mm | - | 0 W/m² | - |
| 1787896138 | 30° C | 27% | 1188.8 hPa | 0 mm | - | 0 W/m² | - |
| 1787895828 | 30° C | 26% | 1188.4 hPa | 0 mm | - | 0 W/m² | - |
| 1787895527 | 30.56° C | 26% | 1188.2 hPa | 0 mm | - | 0 W/m² | - |
| 1787895224 | 31.67° C | 23% | 1188.2 hPa | 0 mm | - | 0 W/m² | - |
| 1787894919 | 32.22° C | 22% | 1188.1 hPa | 0 mm | - | 0 W/m² | - |
| 1787894614 | 31.67° C | 22% | 1188.2 hPa | 0 mm | - | 0 W/m² | - |
| 1787894313 | 31.11° C | 23% | 1188 hPa | 0 mm | - | 0 W/m² | - |
| 1787894010 | 31.11° C | 24% | 1188 hPa | 0 mm | - | 0 W/m² | - |
| 1787893706 | 31.11° C | 26% | 1188.2 hPa | 0 mm | - | 0 W/m² | - |
| 1787893400 | 31.67° C | 24% | 1188.1 hPa | 0 mm | - | 0 W/m² | - |
| 1787893096 | 31.11° C | 24% | 1188 hPa | 0 mm | - | 0 W/m² | - |
| 1787892793 | 31.11° C | 24% | 1188 hPa | 0 mm | - | 0 W/m² | - |
| 1787892488 | 31.11° C | 25% | 1188.1 hPa | 0 mm | - | 0 W/m² | - |
| 1787892185 | 31.11° C | 25% | 1188.2 hPa | 0 mm | - | 0 W/m² | - |
| 1787891885 | 31.11° C | 25% | 1188.4 hPa | 0 mm | - | 0 W/m² | - |
| 1787891581 | 31.11° C | 25% | 1188.2 hPa | 0 mm | - | 0 W/m² | - |
* Rain latest hour (hover to see other rain measurements)
** Current wind speed in m/s (hover to see current wind gust speed)